Regional Weather Roundup
Issued by NWS

Home | Current Version | Previous Version | Graphics & Text | Print | Product List | Glossary On
Versions: 1 2 3 4 5 6 7 8 9 10 11 12 13 14 15 16 17 18 19 20 21 22 23 24 25 26 27 28 29 30 31 32 33 34 35 36 37 38 39 40 41 42 43 44 45 46 47 48 49 50
000
ASUS43 KMKX 291100
RWRWI

WISCONSIN REGIONAL WEATHER ROUNDUP
NATIONAL WEATHER SERVICE MILWAUKEE/SULLIVAN WI
600 AM CDT FRI AUG 29 2014

NOTE: "FAIR" INDICATES FEW OR NO CLOUDS BELOW 12,000 FEET WITH NO
SIGNIFICANT WEATHER AND/OR OBSTRUCTIONS TO VISIBILITY.

WIZ001-002-006>008-014>016-023>028-291200-
NORTHWEST WISCONSIN

CITY           SKY/WX    TMP DP  RH WIND       PRES   REMARKS
SUPERIOR ARPT  DRIZZLE   62  61  97 CALM      29.85F
ASHLAND        CLOUDY    62  57  83 S7        29.89F
HAYWARD        CLOUDY    60  59  96 SE8       29.88F
SIREN          LGT RAIN  61  60  96 SE6       29.84F
RICE LAKE      LGT RAIN  59  57  94 SE12      29.88F
LADYSMITH      RAIN      59  58  94 SE7       29.93F
EAU CLAIRE     RAIN      59  58  96 SE7       29.88F
MENOMONIE      LGT RAIN  60  60  99 E7        29.87F
NEW RICHMOND   CLOUDY    63  63  99 SE8       29.84S
OSCEOLA        CLOUDY    64  64 100 SE7       29.85F
$$

WIZ003>005-009-010-017-018-291200-
NORTH CENTRAL WISCONSIN

CITY           SKY/WX    TMP DP  RH WIND       PRES   REMARKS
WOODRUFF       CLOUDY    59  57  91 S8        29.96S
RHINELANDER    CLOUDY    57  56  96 SE7       29.98S FOG
EAGLE RIVER    DRIZZLE   57  57 100 S6        29.97S
LAND O LAKES   CLOUDY    59  55  89 SE6       29.98S
PHILLIPS       CLOUDY    56  56  99 SE8       29.94S FOG
TOMAHAWK       DRIZZLE   57  56  96 SE5       29.97S
MEDFORD        DRIZZLE   57  56  99 SE5       29.95S
MERRILL        CLOUDY    57  57 100 SE7       29.96F FOG
$$

WIZ029-030-035-036-043>047-291200-
CENTRAL WISCONSIN

CITY           SKY/WX    TMP DP  RH WIND       PRES   REMARKS
WAUSAU         LGT RAIN  59  58  96 SE9       29.95S FOG
MOSINEE        LGT RAIN  57  57 100 E8        29.97S FOG
MARSHFIELD     CLOUDY    60  59  96 SE6       29.94F FOG
STEVENS POINT  CLOUDY    58  58  98 E10       29.96S
WAUPACA        CLOUDY    62  61  95 CALM      29.96S
WAUTOMA        NOT AVBL
WISC RAPIDS    CLOUDY    61  59  93 E5        29.95F
CAMP DOUGLAS   CLOUDY    61  61 100 E6        29.92F
$$

WIZ011>013-019>022-031-037>040-048>050-291200-
NORTHEAST WISCONSIN

CITY           SKY/WX    TMP DP  RH WIND       PRES   REMARKS
ANTIGO         RAIN      56  56 100 SE9       29.98S
STURGEON BAY   CLOUDY    61  57  88 E10       29.99F
GREEN BAY      RAIN      62  61  96 CALM      29.97S
MANITOWOC      NOT AVBL
APPLETON       CLOUDY    63  61  94 E5        29.96F
CLINTONVILLE   CLOUDY    59  59 100 CALM      29.97S
OSHKOSH        CLOUDY    65  63  93 S3        29.95S
$$

WIZ032>034-041-042-053>061-291200-
SOUTHWEST WISCONSIN

CITY           SKY/WX    TMP DP  RH WIND       PRES   REMARKS
LA CROSSE      LGT RAIN  66  64  93 SE6       29.88S
SPARTA         CLOUDY    63  61  94 CALM      29.91F
VIROQUA        CLOUDY    65  65 100 E7        29.90F
BOSCOBEL       MOCLDY    69  66  90 CALM      29.89F
PRAIRIE DU CHI MOCLDY    69  66  91 E5        29.86F
PLATTEVILLE    MOCLDY    67  66  97 CALM      29.94F
$$

WIZ056-057-062-063-064-067-068-291200-
SOUTH CENTRAL WISCONSIN

CITY           SKY/WX    TMP DP  RH WIND       PRES   REMARKS
BARABOO/DELLS  RAIN      65  63  93 CALM      29.94F
LONE ROCK      NOT AVBL
WATERTOWN      MOCLDY    64  64 100 SE3       29.95S
MADISON        CLOUDY    67  64  90 S6        29.94S
MIDDLETON      CLOUDY    67  66  97 S3        29.94S
MONROE         CLOUDY    64  64 100 S8        29.94F FOG
JANESVILLE     RAIN      66  64  94 CALM      29.94F
$$

WIZ051-052-058>065-066-070>072-291200-
SOUTHEAST WISCONSIN

CITY           SKY/WX    TMP DP  RH WIND       PRES   REMARKS
MILWAUKEE      MOCLDY    70  66  87 S8        29.97S
WAUKESHA       CLEAR     66  64  94 SE5       29.98S
MILWAUKEE/TIMM MOCLDY    68  63  83 S3        29.98S
RACINE         CLOUDY    71  67  87 S9        29.99S
BURLINGTON     CLOUDY    62  61  98 CALM      29.97S FOG
KENOSHA        MOCLDY    71  66  84 S7        29.98S
FOND DU LAC    CLOUDY    66  62  87 S7        29.95F
SHEBOYGAN      CLOUDY    67  64  90 S10       29.96F
WEST BEND      CLOUDY    64  63  94 SE3       29.97S
JUNEAU         CLOUDY    65  63  93 SE8       29.96F
$$

LSZ147-162-291200-
LAKE SUPERIOR

STATION/POSITION TIME  TEMP    WIND        PRES    WAVE
                       AIR SEA DIR/SP/G            HT/PER
                 (UTC) (F)     (DEG/KT/KT) (MB)    (FT/S)
W MID LAKE BUOY  0950   59 56  130/  6/  6 1013.1S   1
DEVILS ISLAND    1000   61     100/  4/  5 1012.4F
PORT WING        1040   65     140/  4/  8 1011.5F
SAXON HARBOR     1000   65     180/  4/ 10 1012.5S
$$

LMZ867-665-643>646-291200-
LAKE MICHIGAN

STATION/POSITION TIME  TEMP    WIND        PRES    WAVE
                       AIR SEA DIR/SP/G            HT/PER
                 (UTC) (F)     (DEG/KT/KT) (MB)    (FT/S)
N MID LAKE BUOY  0950   65 65  180/ 14/ 16 1016.5F   1/ 3
NORTHPORT PIER   1000   63     160/  7/ 14 1016.3S
SISTER BAY       1026   59     190/  8/ 11   N/A
ALGOMA LAKESHORE 0923          120/ 10/ 12   N/A
KEWAUNEE LAKESHO 1000   63     110/ 10/ 12 1014.6F
SHEBOYGAN LAKESH 1000   67 69  150/ 17/ 18 1014.8F
ATWATER BUOY     1000   70     160/ 12/ 16 1015.7F
MILWAUKEE LAKESH 1000   70     160/ 11/ 13   N/A
S MID LAKE BUOY  0950   69     150/ 16       N/A
KENOSHA   LAKESH 1000   72     160/ 15/ 17 1014.6S
$$

TC  - TEMPERATURE IN CELSIUS
VSB - VISIBILITY IN STATUTE MILES
WCI - WIND CHILL INDEX
HX  - HEAT INDEX



USA.gov is the U.S. government's official web portal to all federal, state and local government web resources and services.